ATLAS 5 CENTAUR DEB, 47343

Orbit data source: Space-Track

ATLAS 5 CENTAUR DEB, 47343 is space debris in HEO originally from a launch on Wed, 17 Oct 2018 UTC launched from the Air Force Eastern Test Range (AFETR). Debris objects in space refer to the collection of defunct objects orbiting the Earth. Examples of debris include non-operational satellites, rocket bodies, and fragments generated from explosions, collisions, or faulty payload assembly.

Loading next visibility...
Identifier
47343, 2018-079EQ
Orbit
HEO
Country
Flag of USUS
Related business
Flag of USUnited Launch Alliance/Lockheed Martin (US)
Manufacturer
ULA Decatur
Mission
Spacecraft
Bus & Motor
Unknown
Mass
Unknown
Launch date (UTC)
2018-10-17 (7 years ago)
Launch vehicle
Unknown
Launch site
Air Force Eastern Test Range (AFETR)
Object type
Payload
Rocket body
Debris
Shape & HBR
Unknown shape, 1.1 m
Radar Cross Section
Small (<0.1 m²)

Expand to show TLE details & history
Last TLE update: 10 months ago

TLE from 10 months ago
0 ATLAS 5 CENTAUR DEB
1 47343U 18079EQ  25002.93900188 -.00000065  00000-0  00000-0 0  9995
2 47343  12.0005  91.4298 3403290 232.6581  91.1922  1.97030580 25309
Epoch: 2025-01-02T22:32Z
TLE epoch observation values (Epoch: 2025-01-02T22:32:09.762Z)
Latitude
0.00005°
Longitude
10.55278°
Altitude
23,587.033 km
Speed
3.431 km/s
True Right ascension
06h 05m 37s
True Declination
0° 00' 00"
Sunlit
Object was in daylight at epoch
Visualization orbit readout
Latitude
Unknown
Longitude
Unknown
Altitude
Unknown
Speed
Unknown
Apparent Right ascension
Unknown
Apparent Declination
Unknown
Sunlit
N/A
Visualization observer readout
Local Sidereal Time
15:27:18
Azimuth
Unknown
Elevation
Unknown
Doppler factor
Unknown
Orbital elements
Apogee altitude
29,648.264 km
Perigee altitude
11,353.011 km
Semi-major axis
26,878.775 km
Eccentricity
0.34033
Inclination
12.0005°
RAAN
91.4298°
Arg. of periapsis
232.6581°
True anomaly
127.31049°
Mean anomaly
91.1922°
Eccentric anomaly
109.56568°
Mean motion
0.49253 °/min
Orbital period
730.93 mins
BSTAR
0
Loading maneuver chart data...
Computing Atmospheric mass density...

Documentation

Showing up to 5 results
|